Wind_Speed
3 3 2 5 6 6 3 2 3 1 4 5 5 3 9 9 5 8 10 9 8 9 12 20 14 9 11 8 8 6 5 4 3 5 7 10 13 18 21 24 26 27 28 28
4 5 8 5 3 0 3 3 4 3 5 3 2 6 4 8 6 7 10 8 8 5 6 9 7 10 12 10 7 7 8 6 3 3 6 9 12 13 18 22 26 27 28 30
5 5 7 4 3 2 3 4 4 2 2 1 2 6 7 5 7 10 6 6 5 6 6 2 5 8 7 4 6 11 9 5 3 3 6 8 11 15 17 22 25 26 28 32
2 3 3 1 1 3 3 2 4 5 4 1 4 4 4 4 5 4 5 5 4 5 2 4 6 3 3 4 9 10 7 4 3 4 6 9 13 16 20 22 22 25 27 31
6 1 0 4 2 3 4 2 2 2 4 4 3 3 5 2 3 1 2 2 3 4 5 4 3 8 1 7 9 10 6 4 2 6 10 12 14 16 17 19 23 26 27 24
6 4 4 5 2 2 1 4 8 6 4 2 5 5 3 3 5 3 4 5 6 6 2 2 5 1 5 8 4 6 2 1 5 8 10 12 14 19 24 28 29 25 26 27
5 4 2 4 3 7 4 6 3 4 4 5 4 4 4 3 6 6 5 5 6 6 2 1 1 7 11 10 9 8 3 4 7 12 15 18 23 24 26 27 25 27 25 24
2 6 5 3 5 5 4 8 5 4 2 4 5 3 3 2 5 6 6 6 2 6 5 1 8 8 8 10 8 3 4 8 11 14 22 26 29 30 27 27 28 26 25 25
3 3 3 5 3 5 1 2 5 6 1 2 2 2 5 4 4 4 1 4 4 5 4 7 5 7 8 8 8 7 8 12 17 21 24 31 31 31 31 31 26 26 27 28
7 2 1 2 3 2 4 4 2 3 2 3 4 3 4 6 7 7 3 2 7 5 5 3 3 9 11 12 9 10 15 17 16 23 32 30 32 31 29 28 30 27 29 29
6 5 5 5 4 5 2 1 5 5 5 5 1 6 6 10 9 8 7 3 3 5 2 1 6 11 10 11 13 15 16 23 29 32 31 31 30 29 28 29 30 31 31 31
2 5 3 7 5 4 6 8 6 5 5 2 4 6 6 8 9 7 6 6 2 4 3 4 8 9 12 13 17 17 22 25 28 28 28 29 29 27 30 29 31 30 31 30
6 1 2 8 6 6 2 2 4 3 3 6 5 6 5 6 5 5 5 0 5 3 6 4 5 6 10 15 14 18 24 26 27 26 27 27 29 29 30 31 31 31 30 30
9 4 6 7 5 3 4 6 5 5 3 4 6 8 2 4 4 3 4 4 4 7 5 3 4 8 12 11 16 23 25 24 24 25 27 27 29 31 31 31 31 30 29 29
5 5 4 4 4 0 2 7 8 3 7 6 8 6 5 6 5 5 5 5 7 5 5 6 5 6 10 16 21 23 23 21 23 26 25 28 30 31 32 30 28 28 26 24
2 3 3 2 2 4 4 7 9 8 5 6 4 4 4 5 7 4 4 5 4 5 6 5 5 8 13 17 20 22 19 22 24 25 26 28 30 31 28 27 28 27 26 23
5 5 3 3 1 4 4 4 4 5 6 2 3 3 1 5 6 3 3 5 4 6 5 7 6 9 13 18 19 18 21 23 24 24 26 27 28 26 26 27 25 27 25 24
6 5 3 3 2 1 6 5 8 11 8 13 12 5 3 5 4 5 5 5 6 6 6 5 7 10 16 17 16 19 20 22 22 22 24 25 25 24 25 26 26 26 24 24
6 4 3 3 3 4 7 5 3 5 5 6 8 5 5 4 3 4 6 7 8 7 6 7 7 12 14 16 18 20 21 22 22 23 23 25 23 23 24 24 26 26 25 25
8 2 3 2 4 4 3 6 4 5 2 1 5 3 1 1 4 3 7 9 8 10 9 7 10 12 14 18 19 20 20 21 21 23 22 23 21 23 23 24 25 24 24 24
4 3 13 4 4 5 4 4 3 2 5 3 4 4 6 4 2 4 7 7 12 12 10 9 12 14 16 19 19 18 19 20 21 21 20 22 22 22 24 25 27 27 26 26
2 4 3 3 3 6 6 1 4 6 3 5 6 4 5 3 7 9 7 6 8 9 10 12 13 15 17 21 19 17 19 20 19 19 21 22 23 23 24 25 27 29 27 27
4 6 4 6 6 5 4 3 3 7 5 4 5 3 3 6 7 8 6 6 9 10 10 11 14 14 18 20 19 18 19 20 20 21 22 21 23 24 25 27 25 26 25 23
3 2 4 4 3 5 5 4 6 4 5 4 5 7 6 9 9 7 6 6 9 10 10 11 14 15 16 20 18 18 18 20 21 20 21 22 22 26 28 29 31 30 24 23
4 3 3 1 2 6 3 5 7 5 5 6 7 7 8 11 7 8 6 8 11 10 11 12 14 14 16 17 17 19 16 18 21 22 21 23 25 24 24 27 27 28 30 27
4 3 2 5 7 7 6 7 9 8 7 8 12 7 8 11 8 11 8 14 11 12 10 12 13 15 17 17 20 19 16 22 23 23 20 21 24 24 24 22 20 22 20 23
Wind_Direction
284 60 256 253 183 207 259 290 308 235 211 118 193 217 196 213 197 158 155 154 162 186 214 200 204 194 191 214 240 245 245 236 296 342 338 345 348 346 343 344 341 335 336 335
2 227 222 209 133 95 309 322 338 15 44 89 249 268 251 211 208 168 147 145 166 181 188 204 197 188 193 228 241 245 241 228 270 310 325 331 336 333 331 337 338 331 327 326
173 231 180 180 192 184 43 71 16 45 335 21 137 330 2 359 65 107 122 154 154 170 190 173 124 177 209 239 245 244 220 242 261 308 311 315 322 323 322 326 325 327 323 320
240 259 137 18 114 154 97 6 45 15 59 273 81 276 345 352 55 42 99 96 47 358 78 113 169 234 202 235 263 246 225 253 279 313 298 307 311 308 317 318 317 317 314 312
266 23 274 66 118 94 193 41 42 357 18 21 326 92 304 317 88 185 280 281 335 355 149 114 55 130 317 304 301 214 217 245 283 312 309 312 315 319 322 321 320 316 312 304
231 257 172 161 122 130 275 33 23 36 91 358 261 131 267 179 204 247 268 278 300 322 277 104 151 198 312 2 57 177 212 194 317 319 327 332 337 331 327 322 317 310 303 298
323 261 164 123 56 1 85 57 349 357 13 221 331 68 256 285 173 183 197 244 262 252 250 8 6 336 10 61 77 101 39 357 343 335 332 331 327 325 320 314 307 307 300 294
148 323 167 164 155 186 165 150 149 202 229 274 338 132 242 273 125 131 170 201 290 347 6 244 13 44 67 98 95 39 353 357 343 335 327 326 325 323 317 309 307 300 292 290
133 336 53 90 118 118 253 135 171 112 343 54 243 7 328 226 152 187 279 13 344 341 338 27 74 58 89 100 49 39 14 349 332 333 330 330 325 319 311 307 304 300 297 291
196 148 242 191 67 327 146 170 66 20 131 249 295 217 224 218 228 230 247 333 334 340 42 92 43 53 72 53 47 10 347 344 345 339 333 325 318 315 312 309 307 302 300 295
140 116 274 110 186 174 347 314 64 116 140 166 215 269 216 206 214 203 231 242 277 46 92 57 47 70 62 28 10 2 358 350 345 338 328 322 318 316 316 313 308 304 298 293
123 131 184 224 251 226 179 190 150 130 230 211 160 265 238 212 199 191 235 233 261 53 59 67 79 50 19 8 3 1 354 352 341 329 326 323 318 319 316 312 307 302 297 292
174 56 51 340 354 8 71 209 157 114 83 194 149 259 348 106 136 220 199 250 76 94 85 80 59 25 13 9 6 358 354 343 334 332 330 327 326 322 318 314 310 307 301 297
99 120 152 183 194 198 300 317 307 142 128 223 218 255 143 171 159 122 109 124 88 79 85 92 31 16 18 14 1 354 344 339 336 335 330 330 330 324 319 316 314 311 309 304
104 151 157 193 208 275 286 300 303 230 232 170 248 213 178 183 104 119 92 57 54 65 56 43 23 16 18 4 354 346 341 339 338 335 335 333 327 327 323 325 327 328 326 321
38 161 119 289 317 320 317 296 297 285 295 245 166 67 186 118 107 83 55 61 87 54 63 36 31 34 14 355 345 339 339 341 343 340 337 332 333 332 336 343 345 347 348 354
121 130 98 254 331 16 318 224 316 297 10 259 80 141 61 89 96 78 73 112 68 85 53 39 42 25 356 348 343 340 341 345 345 342 336 337 336 343 349 354 360 4 1 11
117 108 116 196 71 189 240 336 278 94 39 80 80 90 54 152 147 56 48 124 98 72 53 50 37 5 357 351 349 346 351 350 347 341 339 344 352 355 358 5 9 10 9 16
110 110 119 163 183 281 302 341 142 132 45 356 98 63 54 121 132 46 54 82 89 85 86 88 40 11 2 359 354 358 357 355 349 347 354 357 2 3 8 16 17 16 19 23
110 102 147 177 164 213 243 290 342 125 108 244 100 108 159 340 48 290 120 89 82 88 91 83 32 19 15 6 3 0 359 352 357 359 1 7 16 15 19 23 23 23 28 32
123 169 226 168 199 275 212 269 318 168 202 188 133 103 53 45 218 101 99 89 94 82 71 53 37 27 17 7 1 6 359 6 6 10 12 22 26 26 34 38 37 32 34 38
188 162 180 127 125 267 196 229 152 180 191 155 83 71 66 55 88 129 118 106 96 79 54 46 42 31 18 11 13 9 6 8 14 22 22 30 34 37 45 43 41 42 39 40
218 180 182 170 210 212 156 135 124 129 143 164 149 124 87 70 102 137 121 105 90 77 63 52 46 38 28 28 25 15 20 28 29 30 28 32 47 50 49 51 46 42 40 43
272 99 157 133 259 166 132 83 124 160 118 168 111 97 93 101 124 124 120 110 98 71 63 51 53 46 26 15 26 31 35 43 41 34 35 40 46 56 63 63 62 58 44 40
216 132 174 332 60 71 76 153 165 170 185 103 90 116 113 120 134 128 122 108 101 89 67 60 62 51 27 32 34 30 42 54 46 45 49 54 54 54 56 61 58 62 63 55
170 182 137 219 200 138 172 168 152 143 137 130 115 88 98 124 129 130 110 108 110 97 81 76 73 54 40 47 40 53 60 76 71 72 53 44 54 61 64 67 71 82 72 39
Height
777 795 805 795 790 788 787 793 796 778 773 781 787 782 786 778 779 784 787 789 790 789 784 783 784 786 786 787 787 787 787 787 786 786 785 783 781 779 776 774 771 768 766 764
792 802 785 773 776 781 787 793 796 783 774 782 789 790 780 780 779 780 785 789 789 787 785 783 782 784 784 785 786 786 784 783 783 783 782 780 776 774 773 771 768 764 762 759
798 782 769 773 781 786 794 799 800 797 788 785 790 804 795 789 784 782 785 785 783 784 785 781 783 784 783 784 784 781 781 781 781 779 778 776 773 770 767 765 763 761 758 755
781 769 772 779 782 784 802 787 790 794 806 821 794 838 804 805 800 793 788 789 788 785 783 784 783 783 783 782 780 779 780 780 778 777 775 773 769 765 762 760 758 756 754 750
793 780 779 785 784 779 795 781 788 790 806 812 810 827 817 807 807 800 792 787 786 787 785 781 781 780 780 779 778 777 778 778 777 775 772 769 766 763 759 757 754 750 748 745
783 766 770 776 773 774 774 787 801 809 822 842 814 818 823 814 809 804 796 792 790 786 783 782 781 780 778 777 776 777 778 777 775 773 770 767 764 760 756 752 748 743 740 737
784 779 768 768 784 784 786 817 849 843 852 845 807 823 817 798 797 795 795 791 787 785 783 783 779 777 777 778 777 777 777 775 772 771 768 765 761 756 752 747 742 736 732 729
807 811 780 768 782 794 792 812 858 862 870 843 814 826 819 796 792 790 789 788 785 783 784 780 781 781 779 778 777 776 775 773 771 768 766 761 756 750 745 740 735 730 726 722
804 800 770 768 769 780 790 808 803 833 838 846 830 816 805 795 791 787 785 785 785 783 782 784 782 780 779 778 778 778 777 774 770 765 761 756 750 744 737 732 727 722 720 716
784 803 777 772 769 774 785 788 819 838 854 845 833 820 825 805 798 790 786 786 787 784 784 784 782 781 780 780 779 779 776 772 767 762 757 751 745 738 731 725 719 715 712 709
775 794 794 778 788 796 799 804 810 822 839 862 868 834 798 795 793 792 789 784 782 784 786 785 784 784 782 780 778 776 773 768 762 757 752 746 739 732 726 720 714 708 703 700
770 800 808 797 775 773 785 793 804 837 827 841 847 835 780 784 786 785 784 783 782 781 785 786 784 782 780 778 777 774 769 765 760 755 748 741 734 728 721 715 708 702 696 692
772 803 823 810 795 782 783 779 789 807 819 825 847 829 783 782 785 786 787 784 784 784 786 785 782 782 780 779 777 772 767 763 758 751 745 738 731 724 717 709 702 695 689 683
766 798 811 834 807 797 797 792 786 799 825 815 821 801 792 786 786 786 789 787 783 784 785 785 783 782 782 780 776 770 766 762 756 749 743 735 728 721 712 704 696 689 682 675
775 796 792 794 791 788 790 790 786 791 795 809 796 795 787 786 785 786 783 782 784 785 783 784 785 785 783 779 774 770 766 760 754 747 740 733 726 717 708 700 692 685 678 671
775 798 788 794 786 787 793 788 786 782 779 783 783 792 782 782 785 786 784 786 786 784 785 786 787 787 784 780 776 771 765 759 753 746 739 732 723 715 707 699 690 684 676 670
780 790 803 808 788 794 804 783 781 780 782 775 788 788 784 790 787 785 785 785 785 788 789 790 791 789 786 782 777 771 765 758 752 746 739 731 724 716 708 700 693 686 679 672
782 788 795 806 796 819 787 769 768 782 787 781 786 788 789 787 786 786 785 787 790 791 793 794 793 791 786 782 777 771 765 759 753 746 739 732 725 718 711 703 696 691 685 678
768 786 800 806 810 797 781 777 778 783 801 794 790 790 788 787 786 791 790 792 794 797 797 797 794 791 787 782 776 770 764 759 752 746 740 734 728 721 715 708 702 697 690 685
765 777 792 808 810 824 791 777 769 776 810 793 790 793 793 788 796 798 796 795 799 800 799 797 794 791 786 781 776 771 765 760 754 749 743 738 732 725 719 714 709 704 698 694
782 788 791 802 806 796 778 773 767 790 806 788 788 789 790 794 795 796 796 799 801 801 799 797 794 791 787 782 776 772 767 761 757 752 746 740 736 731 725 721 716 711 706 702
774 785 793 796 802 803 770 771 781 787 788 787 784 783 784 786 792 797 799 800 802 802 800 797 795 792 788 783 778 774 769 765 760 755 749 744 740 736 732 727 723 719 716 712
778 773 779 783 788 769 768 768 772 779 783 784 783 782 783 787 793 798 800 802 803 803 801 799 797 795 790 786 781 776 773 768 763 759 754 750 745 742 738 734 731 728 725 723
766 761 774 777 768 766 769 770 773 777 779 781 780 784 785 791 795 799 801 804 804 804 803 802 799 796 793 788 784 780 776 772 768 764 760 756 752 749 745 742 740 738 736 733
766 760 765 772 767 770 769 769 773 777 780 780 782 783 787 789 795 798 802 804 805 806 805 805 802 800 796 792 787 784 781 777 773 770 767 763 760 758 755 752 750 749 746 743
762 768 774 781 763 766 771 771 771 774 777 779 783 787 788 788 794 798 802 804 807 807 808 807 805 803 800 796 792 789 785 781 779 777 774 772 768 766 763 761 760 757 754 750